Showing default

LYNK TOWER 3, 55046

Orbit data source: Space-Track

LYNK TOWER 3, 55046 is a payload satellite owned by Lynk (US) in SSO that was launched on Tue, 03 Jan 2023 UTC via an FALCON 9 launch vehicle from the Air Force Eastern Test Range (AFETR). Payload-class satellites include a variety of spacecraft equipped with specific instruments for various scientific and technological missions. These include communications satellites like Starlink; space stations such as the ISS; scientific satellites like the Hubble; Earth observation satellites from companies like Planet Labs, Umbra, and HawkEye 360; GPS; miniature CubeSats for education and research; and military/defense satellites.

Loading next visibility...
Identifier
55046, 2023-001AP
Orbit
SSO
Country
Flag of USUS
Related business
Manufacturer
Lynk
Mission
Operational Commercial Communications
Bus & Motor
LYNK SHANNON, Unknown motor
Mass
~80 kg wet, ~80 kg dry
Launch date (UTC)
2023-01-03 (3 years ago)
Launch vehicle
FALCON 9
Launch site
Air Force Eastern Test Range (AFETR)
Object type
Payload
Rocket body
Debris
Shape & HBR
Box, 0.5 m
Radar Cross Section
0.650 m², Medium (>0.1 m² and < 1m²)

Expand to show TLE details & history
Last TLE update: 14 hours ago

TLE from 14 hours ago
0 LYNK TOWER 3
1 55046U 23001AP  26106.63873914  .00006551  00000-0  19514-3 0  9992
2 55046  97.3253 167.2421 0007238 350.5673   9.5434 15.35005162182467
Epoch: 2026-04-16T15:19Z
TLE epoch observation values (Epoch: 2026-04-16T15:19:47.061Z)
Latitude
0.00003°
Longitude
92.5126°
Altitude
459.136 km
Speed
7.64 km/s
True Right ascension
11h 08m 58s
True Declination
0° 00' 00"
Sunlit
Object was in full shadow at epoch
Visualization orbit readout
Latitude
Unknown
Longitude
Unknown
Altitude
Unknown
Speed
Unknown
Apparent Right ascension
Unknown
Apparent Declination
Unknown
Sunlit
N/A
Visualization observer readout
Local Sidereal Time
11:48:59
Azimuth
Unknown
Elevation
Unknown
Doppler factor
Unknown
Orbital elements
Apogee altitude
462.795 km
Perigee altitude
452.9 km
Semi-major axis
6,835.985 km
Eccentricity
0.00072
Inclination
97.3253°
RAAN
167.2421°
Arg. of periapsis
350.5673°
True anomaly
9.55716°
Mean anomaly
9.5434°
Eccentric anomaly
9.55028°
Mean motion
3.84009 °/min
Orbital period
93.75 mins
BSTAR
0.00019514
Loading maneuver chart data...
Computing Atmospheric mass density...
Loading historical data...
Loading historical data...
Loading historical data...
Loading historical data...
Loading historical data...
Loading historical data...
Loading historical data...

Documentation

Showing up to 5 results
|